Miscellaneous Local Product
Issued by NWS Hastings, NE

Home | Current Version | Previous Version | Text Only | Print | Product List | Glossary Off
Versions: 1 2 3 4 5 6 7 8 9 10 11 12 13 14 15 16 17 18 19 20 21 22 23 24 25 26 27 28 29 30 31 32 33 34 35 36 37 38 39 40 41 42 43 44 45 46 47 48 49 50

000
AXUS43 KGID 281602
MISGRI

GID CWA HOURLY WEATHER ROUNDUP
NATIONAL WEATHER SERVICE HASTINGS NE
1100 AM CDT FRI AUG 28 2015

NOTE: "FAIR" INDICATES FEW OR NO CLOUDS BELOW 12,000 FEET WITH NO
SIGNIFICANT WEATHER AND/OR OBSTRUCTIONS TO VISIBILITY.

...SOUTH CENTRAL NEBRASKA...

CITY           SKY/WX    TMP DP  RH WIND       PRES   REMARKS
GRAND ISLAND   CLOUDY    73  64  73 N10       29.92R
HASTINGS       LGT RAIN  70  67  90 NW8       29.93R FOG
KEARNEY        CLOUDY    72  63  73 NW8       29.94R
ORD            CLOUDY    68  63  84 N9G21     29.93R
YORK           CLOUDY    72  66  83 N9G17     29.90R
AURORA         PTSUNNY   73  67  83 NW7       29.91R
LEXINGTON      CLOUDY    74  65  74 N12       29.97R
HOLDREGE       CLOUDY    70  64  79 NW7       29.96R
HEBRON         MOSUNNY   75  66  71 NW8       29.89R

...NEBRASKA PANHANDLE...

CITY           SKY/WX    TMP DP  RH WIND       PRES   REMARKS
CHADRON        SUNNY     77  51  40 NW10      30.08R HAZE
ALLIANCE       SUNNY     77  51  40 N13       30.09R
SCOTTSBLUFF    SUNNY     73  52  47 W14       30.13R
SIDNEY         SUNNY     78  48  34 N18G26    30.14R

...WESTERN AND NORTH CENTRAL NEBRASKA...

CITY           SKY/WX    TMP DP  RH WIND       PRES   REMARKS
VALENTINE      NOT AVBL
AINSWORTH      CLOUDY    69  65  89 N15       30.00R
ONEILL         CLOUDY    66  65  98 N9        29.95R FOG
BROKEN BOW     CLOUDY    72  65  78 N13G21    29.96R
IMPERIAL       SUNNY     80  54  40 N12G21    30.04R
NORTH PLATTE   CLOUDY    74  63  68 N12G18    30.01R
MCCOOK         SUNNY     79  60  52 N16       29.99R

...EASTERN NEBRASKA...

CITY           SKY/WX    TMP DP  RH WIND       PRES   REMARKS
NORFOLK        CLOUDY    69  65  86 N15       29.87R
SO SIOUX CITY  CLOUDY    67  63  87 NE6       29.84R FOG
TEKAMAH        LGT RAIN  71  69  93 CALM      29.83R
COLUMBUS       CLOUDY    72  63  73 N5        29.87R
ALBION         CLOUDY    69  63  81 N12       29.90R
OMAHA EPPLEY   CLOUDY    71  67  87 S12       29.83S
OFFUTT AFB     PTSUNNY   74  68  81 S8        29.82S
MILLARD        CLOUDY    73  68  83 S3        29.83R
LINCOLN        CLOUDY    75  68  78 W10       29.86R
NEBRASKA CITY  PTSUNNY   77  67  70 S18       29.86S
BEATRICE       CLOUDY    76  67  75 SW13      29.87R
FALLS CITY     PTSUNNY   74  67  78 S10       29.89R

...NORTHERN KANSAS...

CITY           SKY/WX    TMP DP  RH WIND       PRES   REMARKS
GOODLAND       SUNNY     80  52  37 NW18      30.08R
HILL CITY      SUNNY     81  62  52 N10       29.97R
NORTON         SUNNY     75  61  60 NW9       29.97R
PHILLIPSBURG   PTSUNNY   75  66  73 N7        29.96R
SMITH CENTER   CLOUDY    72  66  83 NW8       29.94R
HAYS           SUNNY     81  63  54 NW13      29.95S
RUSSELL        SUNNY     81  68  64 NW10      29.92S
CONCORDIA      CLOUDY    76  68  76 SW12      29.89S
SALINA         MOSUNNY   83  68  60 SW14      29.90S
TOPEKA         CLOUDY    72  68  87 S10       29.93R



USA.gov is the U.S. government's official web portal to all federal, state and local government web resources and services.